Anoka County, MN

11:21 PM CDT on August 23, 2017 (GMT -0500)
Anoka County / Blaine Airport

Weather History for KANE - May, 2013

Change the Weather History Date:

Tuesday, May 21, 2013

  Actual Average Record
Temperature  
Mean Temperature 55 °F -  
Max Temperature 62 °F 65 °F 82 °F (2007)
Min Temperature 46 °F 45 °F 33 °F (1997)
Degree Days  
Heating Degree Days 10    
Growing Degree Days 5 (Base 50)    
Moisture  
Dew Point 53 °F    
Average Humidity 95    
Maximum Humidity 100    
Minimum Humidity 88    
Precipitation  
Precipitation 0.03 in - - ()
Sea Level Pressure  
Sea Level Pressure 29.61 in    
Wind  
Wind Speed 6 mph (NE)    
Max Wind Speed 13 mph    
Max Gust Speed 17 mph    
Visibility 7 miles    
Events Rain    
Averages and records for this station are not official NWS values.
T = Trace of Precipitation, MM = Missing Value Source: NWS Daily Summary

Daily Weather History Graph

Daily Weather History Graph

Search for Another Location

Airport or City:

Trip Planner

Search our weather history database for the weather conditions in past years. The results will help you decide how hot, cold, wet, or windy it might be!

Date:

Astronomy

May. 21, 2013 Rise Set
Actual Time 5:36 AM CDT 8:42 PM CDT
Civil Twilight 5:01 AM CDT 9:18 PM CDT
Nautical Twilight 4:16 AM CDT 10:03 PM CDT
Astronomical Twilight 3:21 AM CDT 10:58 PM CDT
Moon 4:47 PM CDT (5/21) 3:16 AM CDT (5/21)
Length of Visible Light 16h 16m
Length of Day
15h 05m
Waxing Gibbous, 84% of the Moon is Illuminated
May 21
Waxing Gibbous
May 24
Full
May 31
Last Quarter
Jun 8
New
Jun 16
First Quarter

Hourly Weather History & Observations

Time (CDT) Temp. Windchill Dew Point Humidity Pressure Visibility Wind Dir Wind Speed Gust Speed Precip Events Conditions
12:14 AM 62.6 °F - 60.8 °F 94% 29.55 in 10.0 mi East 6.9 mph - 0.02 in Rain Light Rain
12:34 AM 62.6 °F - 60.8 °F 94% 29.56 in 10.0 mi Calm Calm - 0.02 in   Mostly Cloudy
12:54 AM 62.6 °F - 60.8 °F 94% 29.56 in 10.0 mi Calm Calm - 0.02 in   Overcast
1:14 AM 60.8 °F - 59.0 °F 94% 29.55 in 10.0 mi East 3.5 mph - N/A   Overcast
1:34 AM 60.8 °F - 59.0 °F 94% 29.55 in 10.0 mi ENE 4.6 mph - N/A   Overcast
1:54 AM 60.8 °F - 59.0 °F 94% 29.55 in 10.0 mi ENE 8.1 mph - N/A   Overcast
2:13 AM 60.8 °F - 57.2 °F 88% 29.54 in 10.0 mi ENE 3.5 mph - N/A   Mostly Cloudy
2:34 AM 60.8 °F - 59.0 °F 94% 29.53 in 10.0 mi NNE 5.8 mph - N/A   Scattered Clouds
2:54 AM 59.0 °F - 57.2 °F 94% 29.54 in 10.0 mi ENE 6.9 mph - N/A   Mostly Cloudy
3:13 AM 59.0 °F - 57.2 °F 94% 29.54 in 10.0 mi ENE 8.1 mph - N/A   Overcast
3:34 AM 59.0 °F - 57.2 °F 94% 29.54 in 5.0 mi NE 6.9 mph - N/A   Overcast
3:54 AM 59.0 °F - 57.2 °F 94% 29.54 in 4.0 mi NNE 5.8 mph - N/A   Overcast
4:14 AM 57.2 °F - 57.2 °F 100% 29.54 in 4.0 mi NNE 5.8 mph - N/A   Overcast
4:34 AM 57.2 °F - 57.2 °F 100% 29.54 in 2.5 mi NE 4.6 mph - N/A   Overcast
4:54 AM 57.2 °F - 55.4 °F 94% 29.54 in 2.0 mi NE 4.6 mph - N/A   Overcast
5:14 AM 57.2 °F - 57.2 °F 100% 29.54 in 1.2 mi NE 5.8 mph - N/A   Overcast
5:34 AM 57.2 °F - 55.4 °F 94% 29.54 in 2.5 mi NNE 5.8 mph - N/A   Overcast
5:54 AM 55.4 °F - 55.4 °F 100% 29.55 in 2.5 mi NNE 8.1 mph - N/A   Overcast
6:14 AM 55.4 °F - 55.4 °F 100% 29.55 in 4.0 mi NE 6.9 mph - N/A   Overcast
6:34 AM 55.4 °F - 55.4 °F 100% 29.55 in 5.0 mi NNE 8.1 mph - N/A   Overcast
6:50 AM 55.4 °F - 55.4 °F 100% 29.56 in 3.0 mi NNE 6.9 mph - N/A   Overcast
6:54 AM 55.4 °F - 55.4 °F 100% 29.56 in 7.0 mi NE 8.1 mph - N/A   Overcast
7:45 AM 55.4 °F - 53.6 °F 94% 29.56 in 3.0 mi NNE 4.6 mph - N/A   Overcast
8:45 AM 53.6 °F - 53.6 °F 100% 29.57 in 3.0 mi NNE 9.2 mph - N/A   Overcast
9:45 AM 53.6 °F - 51.8 °F 94% 29.58 in 7.0 mi NNE 11.5 mph 17.3 mph N/A   Overcast
10:55 AM 53.6 °F - 51.8 °F 94% 29.59 in 7.0 mi NNE 8.1 mph - N/A   Overcast
11:55 AM 53.6 °F - 51.8 °F 94% 29.60 in 10.0 mi NE 12.7 mph - N/A   Overcast
12:55 PM 53.6 °F - 51.8 °F 94% 29.61 in 10.0 mi NNE 8.1 mph - N/A   Overcast
1:55 PM 53.6 °F - 51.8 °F 94% 29.63 in 2.0 mi ENE 3.5 mph - N/A Rain Light Rain
2:25 PM 53.6 °F - 51.8 °F 94% 29.63 in 5.0 mi ENE 3.5 mph - N/A   Overcast
2:45 PM 53.6 °F - 51.8 °F 94% 29.64 in 5.0 mi ENE 3.5 mph - N/A   Overcast
3:45 PM 55.4 °F - 53.6 °F 94% 29.65 in 7.0 mi NNE 10.4 mph - N/A   Overcast
4:45 PM 53.6 °F - 51.8 °F 94% 29.67 in 10.0 mi NNE 10.4 mph - N/A   Overcast
5:45 PM 53.6 °F - 51.8 °F 94% 29.67 in 10.0 mi NNE 10.4 mph - N/A   Overcast
6:45 PM 53.6 °F - 50.0 °F 88% 29.68 in 10.0 mi NNE 10.4 mph - N/A Rain Light Rain
7:45 PM 51.8 °F - 50.0 °F 94% 29.69 in 5.0 mi North 8.1 mph - N/A   Drizzle
8:45 PM 51.8 °F - 48.2 °F 88% 29.70 in 7.0 mi NNE 9.2 mph - N/A   Overcast
9:14 PM 50.0 °F - 48.2 °F 94% 29.71 in 10.0 mi NNE 10.4 mph - N/A   Overcast
9:34 PM 50.0 °F - 48.2 °F 94% 29.72 in 10.0 mi NNE 11.5 mph - N/A   Overcast
9:45 PM 48.2 °F - 48.2 °F 100% 29.72 in 7.0 mi NNE 9.2 mph - N/A   Overcast
9:54 PM 48.2 °F - 48.2 °F 100% 29.72 in 7.0 mi NNE 9.2 mph - N/A   Overcast
10:14 PM 48.2 °F - 46.4 °F 93% 29.72 in 7.0 mi NNE 9.2 mph - 0.01 in   Light Drizzle
10:34 PM 48.2 °F - 46.4 °F 93% 29.73 in 5.0 mi North 8.1 mph - 0.01 in   Light Drizzle
10:53 PM 48.2 °F - 46.4 °F 93% 29.73 in 7.0 mi North 9.2 mph - 0.01 in   Overcast
11:14 PM 48.2 °F - 46.4 °F 93% 29.71 in 10.0 mi North 8.1 mph - N/A   Overcast
11:34 PM 48.2 °F - 46.4 °F 93% 29.71 in 10.0 mi North 8.1 mph - N/A   Overcast
11:54 PM 46.4 °F 41.9 °F 46.4 °F 100% 29.71 in 10.0 mi North 9.2 mph - N/A   Overcast